SCP
0 0 0 0 0 0 0 0 0 0 0 0 0 0 0 0 1 0 1 0 0 0
0 0 0 0 0 0 0 0 0 0 0 0 0 0 0 0 0 0 0 0 0 1
0 0 0 0 0 0 0 0 0 0 0 0 0 0 0 0 0 0 0 0 0 0
0 0 0 0 0 0 0 0 0 0 0 0 0 0 0 0 0 0 0 0 0 0
0 0 0 0 0 0 0 0 0 0 0 0 0 0 0 0 0 0 0 0 0 0
0 0 0 0 0 0 0 0 0 0 0 0 0 0 0 0 0 0 0 0 0 0
0 0 0 0 0 0 0 0 0 0 0 0 0 0 0 0 0 0 0 0 0 0
0 0 0 0 0 0 0 0 0 0 0 0 0 0 0 0 0 0 0 0 0 0
0 0 0 0 0 0 0 0 0 0 0 0 0 0 0 0 0 0 0 0 0 0
0 0 0 0 0 0 0 0 0 0 0 0 0 0 0 0 0 0 0 0 0 0
0 0 0 0 0 0 0 0 0 0 0 0 0 0 0 0 0 0 0 0 0 0
0 0 0 0 0 0 0 0 0 0 0 0 0 0 0 0 0 0 0 0 0 0
0 0 0 0 0 0 0 0 0 0 0 0 0 0 0 0 0 0 0 0 0 0
0 0 0 0 0 0 0 0 0 0 0 0 0 0 0 -0 0 0 0 0 0 0
Wind_Speed_500mb
21 9 12 8 9 5 10 18 26 28 30 31 32 32 33 31 33 32 29 28 29 27
10 13 14 11 4 4 13 16 28 31 30 31 30 27 33 21 30 30 30 29 25 25
11 6 5 6 10 14 21 24 26 24 24 25 25 28 29 23 22 29 27 31 30 30
8 5 3 4 10 13 17 17 18 19 20 21 20 20 20 18 20 25 24 23 24 27
8 9 6 6 8 10 11 12 15 15 15 13 20 24 27 27 24 18 24 27 26 25
9 7 7 7 9 9 11 13 13 16 17 23 19 24 23 24 24 26 20 22 22 27
9 10 8 9 10 15 16 16 17 17 18 18 23 25 23 21 24 23 21 22 22 25
11 9 10 13 15 16 17 16 16 18 19 19 25 28 26 23 24 24 23 19 15 20
14 17 17 16 16 17 18 18 18 19 20 24 25 28 24 24 23 24 25 26 27 22
19 18 16 16 17 17 16 16 17 16 15 22 32 30 24 22 19 19 23 28 33 32
19 18 17 16 15 14 11 10 10 10 11 13 29 33 22 25 19 19 21 21 26 35
18 17 17 15 13 9 6 4 5 5 8 13 18 31 29 24 19 19 19 20 35 42
19 18 17 12 9 5 3 3 2 6 9 15 13 27 33 29 21 18 19 19 28 38
21 19 14 11 8 4 3 2 6 9 8 6 18 19 36 38 25 28 18 22 25 28
Wind_Direction_500mb
233 225 234 241 255 291 307 305 302 298 300 303 301 291 286 289 293 291 291 293 285 280
220 235 262 254 238 337 297 303 302 306 303 302 308 314 302 313 297 296 287 294 300 288
134 149 203 255 269 292 302 303 299 314 325 329 328 326 325 323 315 313 309 297 292 287
135 161 116 329 310 307 315 334 340 342 351 356 344 327 327 328 335 336 327 326 316 313
121 108 77 58 24 11 5 11 2 1 10 320 352 349 348 348 345 336 346 343 342 337
105 89 70 56 49 33 36 32 22 14 18 10 3 356 354 350 346 339 351 336 339 339
104 96 92 79 69 62 53 51 45 39 36 21 8 0 359 5 0 355 347 340 341 330
112 105 103 93 84 77 70 55 54 49 42 40 5 10 14 41 0 2 0 358 342 319
126 118 109 95 85 84 74 64 59 52 40 35 24 18 25 38 13 9 4 8 10 22
127 120 111 103 98 91 81 70 60 50 40 22 30 26 35 50 18 15 17 3 16 17
136 129 124 117 108 94 85 77 64 45 41 21 21 30 46 49 18 13 13 11 6 9
145 137 133 133 131 132 105 74 32 6 4 29 352 20 31 46 18 13 10 357 2 353
147 149 148 152 146 146 185 301 46 338 324 332 356 5 17 29 11 7 12 3 357 340
149 150 158 156 164 170 266 5 354 338 309 279 316 334 7 6 11 6 6 353 345 339
Wind_Speed_850mb
21 9 12 8 9 5 10 18 26 28 30 31 32 32 33 31 33 32 29 28 29 27
10 13 14 11 4 4 13 16 28 31 30 31 30 27 33 21 30 30 30 29 25 25
11 6 5 6 10 14 21 24 26 24 24 25 25 28 29 23 22 29 27 31 30 30
8 5 3 4 10 13 17 17 18 19 20 21 20 20 20 18 20 25 24 23 24 27
8 9 6 6 8 10 11 12 15 15 15 13 20 24 27 27 24 18 24 27 26 25
9 7 7 7 9 9 11 13 13 16 17 23 19 24 23 24 24 26 20 22 22 27
9 10 8 9 10 15 16 16 17 17 18 18 23 25 23 21 24 23 21 22 22 25
11 9 10 13 15 16 17 16 16 18 19 19 25 28 26 23 24 24 23 19 15 20
14 17 17 16 16 17 18 18 18 19 20 24 25 28 24 24 23 24 25 26 27 22
19 18 16 16 17 17 16 16 17 16 15 22 32 30 24 22 19 19 23 28 33 32
19 18 17 16 15 14 11 10 10 10 11 13 29 33 22 25 19 19 21 21 26 35
18 17 17 15 13 9 6 4 5 5 8 13 18 31 29 24 19 19 19 20 35 42
19 18 17 12 9 5 3 3 2 6 9 15 13 27 33 29 21 18 19 19 28 38
21 19 14 11 8 4 3 2 6 9 8 6 18 19 36 38 25 28 18 22 25 28
Wind_Direction_850mb
233 225 234 241 255 291 307 305 302 298 300 303 301 291 286 289 293 291 291 293 285 280
220 235 262 254 238 337 297 303 302 306 303 302 308 314 302 313 297 296 287 294 300 288
134 149 203 255 269 292 302 303 299 314 325 329 328 326 325 323 315 313 309 297 292 287
135 161 116 329 310 307 315 334 340 342 351 356 344 327 327 328 335 336 327 326 316 313
121 108 77 58 24 11 5 11 2 1 10 320 352 349 348 348 345 336 346 343 342 337
105 89 70 56 49 33 36 32 22 14 18 10 3 356 354 350 346 339 351 336 339 339
104 96 92 79 69 62 53 51 45 39 36 21 8 0 359 5 0 355 347 340 341 330
112 105 103 93 84 77 70 55 54 49 42 40 5 10 14 41 0 2 0 358 342 319
126 118 109 95 85 84 74 64 59 52 40 35 24 18 25 38 13 9 4 8 10 22
127 120 111 103 98 91 81 70 60 50 40 22 30 26 35 50 18 15 17 3 16 17
136 129 124 117 108 94 85 77 64 45 41 21 21 30 46 49 18 13 13 11 6 9
145 137 133 133 131 132 105 74 32 6 4 29 352 20 31 46 18 13 10 357 2 353
147 149 148 152 146 146 185 301 46 338 324 332 356 5 17 29 11 7 12 3 357 340
149 150 158 156 164 170 266 5 354 338 309 279 316 334 7 6 11 6 6 353 345 339